Regional Weather Roundup
Issued by NWS Sioux Falls, SD

Home | Current Version | Previous Version | Text Only | Print | Product List | Glossary Off
Versions: 1 2 3 4 5 6 7 8 9 10 11 12 13 14 15 16 17 18 19 20 21 22 23 24 25 26 27 28 29 30 31 32 33 34 35 36 37 38 39 40 41 42 43 44 45 46 47 48 49 50

000
ASUS43 KFSD 031710
RWRFSD

WEATHER ROUNDUP FOR SE SOUTH DAKOTA/SW MINNESOTA/NW IOWA
NATIONAL WEATHER SERVICE SIOUX FALLS SD
1200 PM CDT THU SEP 03 2015

NOTE: "FAIR" INDICATES FEW OR NO CLOUDS BELOW 12,000 FEET WITH NO
SIGNIFICANT WEATHER AND OR OBSTRUCTIONS TO VISIBILITY.


SDZ038>040-050-052>070-031800-
SOUTHEAST SOUTH DAKOTA

CITY           SKY/WX    TMP DP  RH WIND       PRES   REMARKS
BROOKINGS      SUNNY     82  72  69 SE13      29.86S
CHAMBERLAIN    SUNNY     85  72  65 SE9       29.79S
HURON            N/A    N/A N/A N/A MISG      29.79S
MADISON        FAIR      81  77  89 SE9       29.85S
MITCHELL       SUNNY     84  72  67 S9        29.81R
SIOUX FALLS    SUNNY     82  71  69 S9        29.84S
WINNER         FAIR      96  55  25 SE13      29.79S
YANKTON        SUNNY     81  70  69 SE9       29.80F
$$

MNZ071-072-080-081-089-090-097-098-031800-
SOUTHWEST MINNESOTA

CITY           SKY/WX    TMP DP  RH WIND       PRES   REMARKS
FAIRMONT       SUNNY     82  70  65 SE8       29.89S
JACKSON        SUNNY     82  73  74 SE5       29.90S
LUVERNE        SUNNY     82  72  69 SE8       29.87S
MARSHALL       SUNNY     82  70  65 SE8       29.87S
MONTEVIDEO     SUNNY     82  73  74 S9        29.87F
PIPESTONE      SUNNY     82  72  69 S9        29.87S
REDWOOD FALLS  SUNNY     83  72  69 E8        29.86F
TRACY          SUNNY     83  74  73 SE8       29.87S
WINDOM         SUNNY     84  72  65 SE8       29.88F
WORTHINGTON    SUNNY     81  72  74 SE8       29.88F
$$

IAZ001>003-012>014-020>022-031-032-NEZ013-014-SDZ071-031800-
NORTHWEST IOWA

CITY           SKY/WX    TMP DP  RH WIND       PRES   REMARKS
CHEROKEE       SUNNY     83  72  71 S9        29.87S
DENISON        SUNNY     82  72  69 S13       29.86F
ESTHERVILLE    SUNNY     81  73  76 S7        29.90R
LE MARS        SUNNY     82  72  69 S8G14     29.86S
ORANGE CITY    SUNNY     81  72  74 S7        29.86F
SHELDON        SUNNY     82  73  74 S7        29.86S
SIOUX CITY     SUNNY     83  70  64 SE8       29.84S
SPENCER        SUNNY     83  71  67 SE9       29.89S
STORM LAKE     SUNNY     81  72  74 S10       29.89F
$$

ABBREVIATIONS USED IN REMARKS
   TC - TEMPERATURE IN CELSIUS
  WCI - WIND CHILL INDEX
   HX - HEAT INDEX
  VSB - VISIBILITY



USA.gov is the U.S. government's official web portal to all federal, state and local government web resources and services.